QPF
0.00 0.00 0.00 0.00 0.00 0.00 0.00 0.00 0.00 0.00 0.00 0.00 0.00 0.00 0.00 0.00 0.00 0.00 0.00 0.00 0.00 0.00 0.00 0.01 0.02 0.05 0.06 0.07 0.08 0.08 0.08 0.07 0.06 0.04 0.04 0.03 0.02 0.01 0.00 0.00 0.00 0.00 0.00 0.00
0.00 0.00 0.00 0.00 0.00 0.00 0.00 0.00 0.00 0.00 0.00 0.00 0.00 0.00 0.00 0.00 0.00 0.00 0.00 0.00 0.00 0.00 0.01 0.02 0.04 0.08 0.11 0.14 0.15 0.16 0.16 0.13 0.11 0.08 0.06 0.04 0.02 0.01 0.00 0.00 0.00 0.00 0.00 0.00
0.00 0.00 0.00 0.00 0.00 0.00 0.00 0.00 0.00 0.00 0.00 0.00 0.00 0.00 0.00 0.00 0.00 0.00 0.00 0.00 0.00 0.00 0.01 0.02 0.05 0.09 0.14 0.17 0.20 0.23 0.22 0.19 0.14 0.10 0.06 0.03 0.01 0.01 0.00 0.00 0.00 0.00 0.00 0.00
0.00 0.00 0.00 0.00 0.00 0.00 0.00 0.00 0.00 0.00 0.00 0.00 0.00 0.00 0.00 0.00 0.00 0.00 0.00 0.00 0.00 0.00 0.01 0.02 0.04 0.09 0.16 0.22 0.25 0.24 0.24 0.21 0.15 0.09 0.05 0.03 0.02 0.01 0.00 0.00 0.00 0.00 0.00 0.00
0.00 0.00 0.00 0.00 0.00 0.00 0.00 0.00 0.00 0.00 0.00 0.00 0.00 0.00 0.00 0.00 0.00 0.00 0.00 0.00 0.00 0.00 0.01 0.01 0.03 0.08 0.15 0.20 0.21 0.23 0.21 0.17 0.12 0.09 0.06 0.04 0.02 0.01 0.00 0.00 0.00 0.00 0.00 0.00
0.00 0.00 0.00 0.00 0.00 0.00 0.00 0.00 0.00 0.00 0.00 0.00 0.00 0.00 0.00 0.00 0.00 0.00 0.00 0.00 0.00 0.00 0.01 0.01 0.03 0.06 0.10 0.14 0.16 0.18 0.15 0.12 0.08 0.06 0.04 0.02 0.01 0.00 0.00 0.00 0.00 0.00 0.00 0.00
0.00 0.00 0.00 0.00 0.00 0.00 0.00 0.00 0.00 0.00 0.00 0.00 0.00 0.00 0.00 0.00 0.00 0.00 0.00 0.00 0.00 0.00 0.01 0.01 0.03 0.05 0.07 0.10 0.11 0.10 0.08 0.07 0.05 0.03 0.01 0.01 0.00 0.00 0.00 0.00 0.00 0.00 0.00 0.00
0.00 0.00 0.00 0.00 0.00 0.00 0.00 0.00 0.00 0.00 0.00 0.00 0.00 0.00 0.00 0.00 0.00 0.00 0.00 0.00 0.00 0.00 0.01 0.02 0.03 0.05 0.07 0.07 0.06 0.05 0.04 0.03 0.02 0.01 0.01 0.00 0.00 0.00 0.00 0.00 0.00 0.00 0.00 0.00
0.00 0.00 0.00 0.00 0.00 0.00 0.00 0.00 0.00 0.00 0.00 0.00 0.00 0.00 0.00 0.00 0.00 0.00 0.00 0.00 0.00 0.01 0.01 0.02 0.04 0.05 0.05 0.04 0.03 0.03 0.03 0.02 0.01 0.01 0.00 0.00 0.00 0.00 0.00 0.00 0.00 0.00 0.00 0.00
0.00 0.00 0.00 0.00 0.00 0.00 0.00 0.00 0.00 0.00 0.00 0.00 0.00 0.00 0.00 0.00 0.00 0.00 0.00 0.00 0.00 0.01 0.01 0.01 0.02 0.03 0.03 0.03 0.04 0.04 0.03 0.02 0.01 0.00 0.00 0.00 0.00 0.00 0.00 0.00 0.00 0.00 0.00 0.00
0.00 0.00 0.00 0.00 0.00 0.00 0.00 0.00 0.00 0.00 0.00 0.00 0.00 0.00 0.00 0.00 0.00 0.00 0.00 0.00 0.00 0.00 0.00 0.01 0.01 0.02 0.03 0.04 0.04 0.04 0.03 0.02 0.01 0.01 0.01 0.01 0.00 0.00 0.00 0.00 0.00 0.00 0.00 0.00
0.00 0.00 0.00 0.00 0.00 0.00 0.00 0.00 0.00 0.00 0.00 0.00 0.00 0.00 0.00 0.00 0.00 0.00 0.00 0.00 0.00 0.00 0.00 0.00 0.01 0.02 0.03 0.04 0.04 0.04 0.04 0.03 0.02 0.02 0.01 0.00 0.00 0.00 0.00 0.00 0.00 0.00 0.00 0.00
0.00 0.00 0.00 0.00 0.00 0.00 0.00 0.00 0.00 0.00 0.00 0.00 0.00 0.00 0.00 0.00 0.00 0.00 0.00 0.00 0.00 0.00 0.00 0.00 0.01 0.02 0.04 0.05 0.05 0.04 0.04 0.04 0.02 0.01 0.00 0.00 0.00 0.00 0.00 0.00 0.00 0.00 0.00 0.00
0.00 0.00 0.00 0.00 0.00 0.00 0.00 0.00 0.00 0.00 0.00 0.00 0.00 0.00 0.00 0.00 0.00 0.00 0.00 0.00 0.00 0.00 0.00 0.01 0.02 0.03 0.04 0.05 0.05 0.04 0.03 0.02 0.01 0.00 0.00 0.00 0.00 0.00 0.00 0.00 0.00 0.00 0.00 0.00
0.00 0.00 0.00 0.00 0.00 0.00 0.00 0.00 0.00 0.00 0.00 0.00 0.00 0.00 0.00 0.00 0.00 0.00 0.00 0.00 0.00 0.00 0.01 0.02 0.03 0.04 0.04 0.05 0.05 0.04 0.03 0.02 0.01 0.00 0.00 0.00 0.00 0.00 0.00 0.00 0.00 0.00 0.00 0.00
0.00 0.00 0.00 0.00 0.00 0.00 0.00 0.00 0.00 0.00 0.00 0.00 0.00 0.00 0.00 0.00 0.00 0.00 0.00 0.00 0.00 0.02 0.04 0.07 0.08 0.07 0.07 0.07 0.07 0.05 0.04 0.02 0.01 0.00 0.00 0.00 0.00 0.00 0.00 0.00 0.00 0.00 0.00 0.00
0.00 0.00 0.00 0.00 0.00 0.00 0.00 0.00 0.00 0.00 0.00 0.00 0.00 0.00 0.00 0.00 0.00 0.00 0.00 0.00 0.01 0.04 0.07 0.08 0.09 0.09 0.10 0.11 0.09 0.07 0.04 0.02 0.01 0.00 0.00 0.00 0.00 0.00 0.00 0.00 0.00 0.00 0.00 0.00
0.00 0.00 0.00 0.00 0.00 0.00 0.00 0.00 0.00 0.00 0.00 0.00 0.00 0.00 0.00 0.00 0.00 0.00 0.00 0.01 0.02 0.04 0.06 0.07 0.08 0.10 0.13 0.13 0.11 0.07 0.04 0.02 0.00 0.00 0.00 0.00 0.00 0.00 0.00 0.00 0.00 0.00 0.00 0.00
0.00 0.00 0.00 0.00 0.00 0.00 0.00 0.00 0.00 0.00 0.00 0.00 0.00 0.00 0.00 0.00 0.00 0.00 0.00 0.00 0.01 0.03 0.05 0.08 0.11 0.16 0.18 0.16 0.10 0.05 0.03 0.01 0.00 0.00 0.00 0.00 0.00 0.00 0.00 0.00 0.00 0.00 0.00 0.00
0.00 0.00 0.00 0.00 0.00 0.00 0.00 0.00 0.00 0.00 0.00 0.00 0.00 0.00 0.00 0.00 0.00 0.01 0.00 0.00 0.01 0.02 0.05 0.12 0.20 0.23 0.20 0.14 0.08 0.05 0.02 0.01 0.00 0.00 0.00 0.00 0.00 0.00 0.00 0.00 0.00 0.00 0.00 0.00
0.00 0.00 0.00 0.00 0.00 0.00 0.00 0.00 0.00 0.00 0.00 0.00 0.00 0.00 0.00 0.00 0.01 0.01 0.00 0.00 0.01 0.04 0.11 0.17 0.22 0.23 0.17 0.09 0.04 0.02 0.01 0.00 0.00 0.00 0.00 0.00 0.00 0.00 0.00 0.00 0.00 0.00 0.00 0.00
0.00 0.00 0.00 0.00 0.00 0.00 0.00 0.00 0.00 0.00 0.00 0.00 0.00 0.00 0.00 0.00 0.00 0.01 0.01 0.02 0.04 0.09 0.16 0.21 0.23 0.18 0.11 0.05 0.02 0.01 0.00 0.00 0.00 0.00 0.00 0.00 0.00 0.00 0.00 0.00 0.00 0.00 0.00 0.00
0.00 0.01 0.01 0.01 0.01 0.00 0.00 0.00 0.00 0.00 0.00 0.00 0.00 0.00 0.01 0.01 0.01 0.02 0.04 0.06 0.11 0.17 0.21 0.21 0.17 0.11 0.06 0.02 0.01 0.00 0.00 0.00 0.00 0.00 0.00 0.00 0.00 0.00 0.00 0.00 0.00 0.00 0.00 0.00
0.01 0.00 0.01 0.01 0.01 0.01 0.01 0.01 0.01 0.01 0.01 0.01 0.01 0.01 0.02 0.02 0.03 0.06 0.10 0.16 0.21 0.21 0.16 0.10 0.06 0.03 0.02 0.01 0.00 0.00 0.00 0.00 0.00 0.00 0.00 0.00 0.00 0.00 0.00 0.00 0.00 0.00 0.00 0.00
0.01 0.01 0.02 0.02 0.02 0.03 0.04 0.03 0.03 0.02 0.02 0.03 0.03 0.03 0.04 0.06 0.10 0.14 0.17 0.17 0.14 0.08 0.04 0.02 0.01 0.01 0.00 0.00 0.00 0.00 0.00 0.00 0.00 0.00 0.00 0.00 0.00 0.00 0.00 0.00 0.00 0.00 0.01 0.00
0.01 0.02 0.04 0.05 0.05 0.06 0.08 0.09 0.07 0.06 0.05 0.06 0.06 0.07 0.08 0.08 0.08 0.08 0.08 0.06 0.04 0.02 0.01 0.01 0.01 0.00 0.00 0.00 0.00 0.00 0.00 0.00 0.00 0.00 0.00 0.00 0.00 0.00 0.00 0.00 0.00 0.00 0.00 0.00
MSLP
1011.33 1011.73 1011.97 1012.04 1012.00 1011.89 1011.77 1011.66 1011.59 1011.54 1011.46 1011.33 1011.09 1010.75 1010.30 1009.79 1009.28 1008.85 1008.56 1008.47 1008.59 1008.93 1009.46 1010.13 1010.89 1011.66 1012.43 1013.14 1013.79 1014.39 1014.92 1015.41 1015.87 1016.31 1016.73 1017.11 1017.48 1017.81 1018.11 1018.38 1018.61 1018.80 1018.95 1019.07
1011.22 1011.55 1011.74 1011.80 1011.79 1011.76 1011.75 1011.77 1011.82 1011.86 1011.83 1011.69 1011.39 1010.95 1010.38 1009.74 1009.13 1008.63 1008.33 1008.26 1008.46 1008.91 1009.56 1010.35 1011.21 1012.07 1012.87 1013.61 1014.25 1014.82 1015.33 1015.79 1016.23 1016.65 1017.04 1017.42 1017.77 1018.08 1018.36 1018.61 1018.83 1019.01 1019.18 1019.31
1010.95 1011.22 1011.36 1011.44 1011.48 1011.55 1011.66 1011.82 1011.99 1012.11 1012.10 1011.93 1011.55 1010.98 1010.27 1009.51 1008.80 1008.24 1007.94 1007.93 1008.24 1008.82 1009.62 1010.56 1011.53 1012.46 1013.32 1014.06 1014.68 1015.21 1015.67 1016.10 1016.49 1016.88 1017.25 1017.60 1017.93 1018.23 1018.49 1018.72 1018.92 1019.11 1019.28 1019.44
1010.54 1010.74 1010.86 1010.95 1011.06 1011.24 1011.48 1011.77 1012.05 1012.24 1012.25 1012.03 1011.56 1010.87 1010.02 1009.13 1008.33 1007.74 1007.45 1007.52 1007.95 1008.68 1009.64 1010.71 1011.80 1012.81 1013.70 1014.44 1015.03 1015.52 1015.92 1016.29 1016.65 1017.00 1017.35 1017.69 1018.01 1018.30 1018.55 1018.77 1018.96 1019.15 1019.33 1019.50
1010.04 1010.18 1010.26 1010.37 1010.54 1010.81 1011.18 1011.59 1011.97 1012.22 1012.24 1011.98 1011.43 1010.63 1009.66 1008.67 1007.81 1007.19 1006.94 1007.09 1007.64 1008.51 1009.61 1010.82 1012.01 1013.09 1014.00 1014.73 1015.29 1015.72 1016.07 1016.39 1016.71 1017.05 1017.39 1017.73 1018.06 1018.35 1018.61 1018.83 1019.02 1019.20 1019.38 1019.57
1009.52 1009.57 1009.62 1009.72 1009.94 1010.29 1010.76 1011.27 1011.74 1012.04 1012.08 1011.80 1011.19 1010.31 1009.26 1008.20 1007.29 1006.68 1006.47 1006.70 1007.35 1008.34 1009.57 1010.88 1012.15 1013.27 1014.20 1014.91 1015.44 1015.82 1016.13 1016.42 1016.72 1017.05 1017.40 1017.77 1018.12 1018.43 1018.70 1018.93 1019.13 1019.31 1019.49 1019.67
1009.04 1009.00 1008.98 1009.07 1009.31 1009.71 1010.25 1010.84 1011.37 1011.71 1011.78 1011.49 1010.86 1009.94 1008.85 1007.76 1006.84 1006.25 1006.08 1006.38 1007.11 1008.20 1009.52 1010.90 1012.22 1013.38 1014.31 1015.01 1015.51 1015.86 1016.14 1016.40 1016.70 1017.04 1017.42 1017.82 1018.21 1018.56 1018.85 1019.09 1019.29 1019.46 1019.62 1019.77
1008.66 1008.52 1008.43 1008.48 1008.71 1009.12 1009.69 1010.32 1010.89 1011.28 1011.36 1011.09 1010.46 1009.54 1008.45 1007.37 1006.47 1005.90 1005.78 1006.13 1006.93 1008.08 1009.45 1010.88 1012.23 1013.41 1014.34 1015.03 1015.51 1015.85 1016.12 1016.38 1016.69 1017.05 1017.46 1017.90 1018.32 1018.70 1019.02 1019.27 1019.46 1019.61 1019.73 1019.84
1008.45 1008.21 1008.04 1008.03 1008.21 1008.61 1009.17 1009.80 1010.38 1010.77 1010.87 1010.62 1010.02 1009.13 1008.07 1007.03 1006.17 1005.65 1005.56 1005.95 1006.78 1007.96 1009.36 1010.81 1012.18 1013.36 1014.30 1015.00 1015.48 1015.82 1016.09 1016.37 1016.69 1017.07 1017.51 1017.98 1018.43 1018.83 1019.16 1019.41 1019.58 1019.69 1019.76 1019.82
1008.44 1008.11 1007.86 1007.78 1007.90 1008.23 1008.74 1009.33 1009.88 1010.26 1010.36 1010.13 1009.56 1008.71 1007.71 1006.72 1005.92 1005.44 1005.39 1005.80 1006.65 1007.83 1009.23 1010.69 1012.06 1013.26 1014.21 1014.92 1015.43 1015.79 1016.08 1016.37 1016.71 1017.11 1017.56 1018.03 1018.49 1018.90 1019.22 1019.44 1019.58 1019.65 1019.67 1019.67
1008.64 1008.25 1007.94 1007.79 1007.83 1008.08 1008.50 1009.01 1009.48 1009.81 1009.88 1009.65 1009.10 1008.30 1007.37 1006.45 1005.70 1005.27 1005.25 1005.67 1006.52 1007.69 1009.08 1010.53 1011.90 1013.11 1014.09 1014.83 1015.38 1015.77 1016.09 1016.40 1016.74 1017.14 1017.58 1018.04 1018.48 1018.86 1019.16 1019.35 1019.45 1019.48 1019.45 1019.39
1009.03 1008.62 1008.28 1008.06 1008.02 1008.17 1008.48 1008.86 1009.23 1009.46 1009.48 1009.22 1008.68 1007.93 1007.05 1006.20 1005.52 1005.14 1005.15 1005.58 1006.41 1007.57 1008.93 1010.37 1011.74 1012.97 1013.98 1014.76 1015.34 1015.77 1016.12 1016.44 1016.78 1017.16 1017.57 1018.00 1018.40 1018.74 1018.99 1019.14 1019.21 1019.19 1019.12 1019.03
1009.58 1009.18 1008.83 1008.58 1008.46 1008.50 1008.68 1008.92 1009.14 1009.26 1009.18 1008.88 1008.34 1007.62 1006.80 1006.02 1005.41 1005.08 1005.12 1005.57 1006.39 1007.52 1008.86 1010.27 1011.64 1012.87 1013.91 1014.73 1015.35 1015.82 1016.19 1016.51 1016.83 1017.18 1017.54 1017.91 1018.26 1018.54 1018.75 1018.87 1018.90 1018.87 1018.78 1018.67
1010.21 1009.86 1009.53 1009.26 1009.09 1009.03 1009.07 1009.15 1009.22 1009.20 1009.02 1008.66 1008.11 1007.42 1006.66 1005.96 1005.43 1005.17 1005.25 1005.71 1006.52 1007.63 1008.93 1010.31 1011.66 1012.90 1013.94 1014.79 1015.43 1015.92 1016.30 1016.61 1016.91 1017.21 1017.52 1017.82 1018.11 1018.34 1018.51 1018.60 1018.62 1018.58 1018.49 1018.39
1010.84 1010.58 1010.29 1010.03 1009.82 1009.67 1009.58 1009.52 1009.43 1009.27 1009.00 1008.58 1008.02 1007.37 1006.69 1006.08 1005.65 1005.47 1005.61 1006.09 1006.90 1007.98 1009.24 1010.58 1011.89 1013.09 1014.12 1014.96 1015.61 1016.10 1016.46 1016.75 1017.01 1017.26 1017.51 1017.76 1017.99 1018.18 1018.32 1018.40 1018.42 1018.39 1018.33 1018.26
1011.40 1011.23 1011.01 1010.77 1010.54 1010.32 1010.13 1009.94 1009.72 1009.45 1009.09 1008.63 1008.09 1007.50 1006.93 1006.44 1006.12 1006.05 1006.26 1006.78 1007.59 1008.64 1009.84 1011.11 1012.35 1013.49 1014.48 1015.28 1015.90 1016.35 1016.69 1016.94 1017.16 1017.36 1017.56 1017.76 1017.95 1018.12 1018.24 1018.32 1018.35 1018.35 1018.33 1018.29
1011.83 1011.74 1011.59 1011.39 1011.15 1010.90 1010.63 1010.35 1010.03 1009.68 1009.28 1008.82 1008.33 1007.84 1007.39 1007.05 1006.88 1006.93 1007.24 1007.81 1008.62 1009.62 1010.75 1011.93 1013.07 1014.11 1015.01 1015.73 1016.28 1016.69 1016.98 1017.19 1017.36 1017.52 1017.68 1017.85 1018.01 1018.16 1018.29 1018.38 1018.44 1018.47 1018.47 1018.47
1012.10 1012.08 1011.99 1011.83 1011.61 1011.34 1011.03 1010.69 1010.33 1009.94 1009.54 1009.12 1008.72 1008.36 1008.07 1007.91 1007.91 1008.10 1008.51 1009.13 1009.94 1010.90 1011.94 1013.00 1014.01 1014.92 1015.68 1016.30 1016.76 1017.08 1017.31 1017.47 1017.60 1017.73 1017.86 1018.01 1018.17 1018.33 1018.46 1018.57 1018.66 1018.71 1018.74 1018.75
1012.22 1012.25 1012.21 1012.08 1011.88 1011.62 1011.30 1010.95 1010.58 1010.21 1009.85 1009.53 1009.25 1009.05 1008.94 1008.97 1009.15 1009.49 1010.00 1010.67 1011.47 1012.37 1013.30 1014.22 1015.08 1015.82 1016.44 1016.92 1017.27 1017.50 1017.66 1017.77 1017.87 1017.97 1018.10 1018.25 1018.41 1018.58 1018.73 1018.86 1018.96 1019.02 1019.06 1019.07
1012.25 1012.30 1012.28 1012.19 1012.02 1011.78 1011.48 1011.15 1010.81 1010.50 1010.22 1010.01 1009.88 1009.86 1009.94 1010.16 1010.50 1010.98 1011.58 1012.29 1013.07 1013.89 1014.70 1015.48 1016.17 1016.75 1017.21 1017.55 1017.78 1017.92 1018.01 1018.08 1018.15 1018.25 1018.37 1018.53 1018.71 1018.89 1019.06 1019.21 1019.31 1019.38 1019.41 1019.39
1012.24 1012.30 1012.30 1012.24 1012.10 1011.89 1011.63 1011.35 1011.07 1010.84 1010.66 1010.58 1010.60 1010.74 1011.00 1011.38 1011.87 1012.46 1013.13 1013.85 1014.59 1015.32 1016.02 1016.64 1017.17 1017.59 1017.91 1018.12 1018.24 1018.31 1018.35 1018.39 1018.45 1018.54 1018.67 1018.84 1019.04 1019.24 1019.42 1019.57 1019.68 1019.74 1019.74 1019.70
1012.30 1012.35 1012.36 1012.31 1012.20 1012.04 1011.83 1011.61 1011.41 1011.26 1011.20 1011.23 1011.39 1011.66 1012.06 1012.57 1013.16 1013.82 1014.51 1015.22 1015.91 1016.56 1017.13 1017.62 1018.01 1018.29 1018.49 1018.59 1018.64 1018.66 1018.66 1018.69 1018.74 1018.85 1019.00 1019.18 1019.39 1019.60 1019.79 1019.94 1020.05 1020.09 1020.06 1019.98
1012.47 1012.51 1012.53 1012.50 1012.42 1012.30 1012.15 1012.00 1011.87 1011.81 1011.83 1011.97 1012.22 1012.59 1013.08 1013.65 1014.29 1014.97 1015.66 1016.33 1016.95 1017.50 1017.97 1018.35 1018.63 1018.81 1018.92 1018.97 1018.97 1018.96 1018.96 1018.99 1019.06 1019.18 1019.34 1019.54 1019.75 1019.97 1020.16 1020.31 1020.40 1020.43 1020.38 1020.26
1012.78 1012.82 1012.85 1012.85 1012.80 1012.73 1012.63 1012.54 1012.48 1012.48 1012.57 1012.77 1013.08 1013.50 1014.01 1014.60 1015.24 1015.89 1016.53 1017.14 1017.68 1018.15 1018.53 1018.82 1019.03 1019.16 1019.23 1019.25 1019.25 1019.25 1019.26 1019.31 1019.40 1019.53 1019.71 1019.91 1020.12 1020.34 1020.52 1020.66 1020.74 1020.76 1020.70 1020.56
1013.23 1013.27 1013.32 1013.34 1013.33 1013.30 1013.26 1013.22 1013.21 1013.26 1013.39 1013.61 1013.93 1014.35 1014.84 1015.39 1015.98 1016.57 1017.13 1017.66 1018.12 1018.52 1018.84 1019.08 1019.25 1019.37 1019.44 1019.48 1019.51 1019.54 1019.59 1019.67 1019.78 1019.92 1020.10 1020.30 1020.50 1020.70 1020.86 1020.99 1021.06 1021.07 1021.00 1020.85
1013.73 1013.80 1013.87 1013.93 1013.96 1013.98 1013.98 1013.98 1014.02 1014.09 1014.24 1014.45 1014.75 1015.12 1015.56 1016.04 1016.54 1017.03 1017.51 1017.95 1018.35 1018.69 1018.97 1019.19 1019.37 1019.51 1019.62 1019.70 1019.78 1019.86 1019.95 1020.06 1020.19 1020.34 1020.50 1020.68 1020.86 1021.03 1021.18 1021.28 1021.34 1021.34 1021.28 1021.13
Thickness
5735 5732 5733 5741 5745 5749 5747 5746 5750 5762 5766 5761 5762 5766 5772 5778 5780 5784 5788 5790 5787 5784 5781 5775 5766 5759 5752 5746 5740 5733 5727 5719 5714 5707 5701 5695 5691 5687 5683 5678 5673 5669 5666 5662
5722 5726 5742 5746 5742 5736 5734 5731 5739 5751 5756 5750 5753 5756 5768 5769 5773 5778 5780 5782 5782 5778 5767 5759 5754 5749 5744 5738 5732 5725 5718 5712 5706 5699 5692 5686 5681 5677 5673 5667 5662 5658 5654 5650
5721 5736 5743 5733 5726 5722 5726 5729 5735 5740 5749 5748 5741 5744 5759 5766 5767 5770 5773 5778 5780 5773 5761 5751 5744 5740 5736 5730 5724 5718 5710 5703 5697 5690 5683 5676 5671 5667 5662 5656 5652 5646 5642 5638
5724 5737 5729 5723 5723 5723 5720 5735 5733 5731 5729 5734 5740 5727 5756 5763 5756 5761 5767 5771 5773 5769 5760 5748 5739 5732 5727 5721 5714 5708 5701 5693 5687 5682 5678 5672 5668 5662 5654 5648 5642 5636 5631 5627
5724 5731 5723 5718 5725 5725 5725 5736 5731 5727 5724 5723 5729 5718 5741 5756 5746 5759 5768 5769 5768 5764 5753 5741 5732 5724 5717 5711 5704 5697 5691 5684 5678 5673 5668 5663 5659 5651 5645 5638 5630 5626 5621 5614
5729 5735 5730 5729 5733 5731 5729 5723 5720 5720 5719 5706 5722 5719 5728 5751 5747 5760 5770 5766 5760 5754 5741 5729 5720 5713 5707 5700 5694 5687 5680 5674 5669 5663 5658 5653 5646 5640 5634 5627 5621 5617 5611 5604
5713 5720 5727 5730 5721 5721 5718 5705 5697 5699 5703 5710 5734 5721 5730 5753 5758 5761 5763 5758 5751 5741 5728 5716 5708 5702 5696 5690 5683 5677 5671 5664 5658 5652 5647 5641 5635 5629 5622 5617 5610 5604 5600 5593
5704 5706 5722 5724 5719 5715 5712 5707 5693 5690 5702 5719 5727 5714 5735 5750 5752 5753 5754 5752 5743 5731 5720 5709 5702 5695 5688 5680 5673 5667 5661 5654 5648 5641 5635 5629 5623 5620 5614 5603 5598 5592 5586 5579
5709 5709 5730 5730 5728 5721 5710 5710 5717 5703 5699 5694 5709 5724 5736 5742 5742 5744 5744 5741 5734 5723 5712 5703 5695 5687 5680 5671 5663 5657 5650 5643 5637 5630 5624 5617 5611 5605 5598 5590 5583 5579 5570 5564
5708 5700 5716 5722 5722 5720 5721 5719 5708 5694 5678 5678 5697 5710 5723 5733 5738 5741 5738 5734 5728 5716 5704 5695 5687 5678 5670 5661 5653 5646 5640 5633 5626 5619 5613 5607 5600 5592 5585 5579 5570 5564 5557 5550
5697 5690 5702 5707 5704 5709 5706 5704 5701 5701 5700 5687 5686 5708 5740 5734 5733 5735 5737 5734 5724 5710 5697 5687 5679 5670 5660 5651 5643 5636 5629 5622 5615 5609 5602 5595 5588 5581 5574 5567 5560 5552 5545 5538
5684 5687 5691 5702 5713 5712 5711 5707 5703 5688 5689 5695 5689 5704 5736 5730 5728 5728 5729 5727 5719 5704 5691 5681 5671 5660 5650 5641 5634 5626 5619 5612 5605 5598 5591 5584 5576 5569 5562 5556 5548 5541 5534 5528
5670 5670 5670 5681 5686 5694 5696 5698 5700 5698 5692 5688 5685 5702 5722 5721 5719 5718 5718 5716 5707 5693 5682 5672 5661 5650 5641 5633 5625 5617 5609 5601 5594 5588 5580 5572 5565 5558 5551 5544 5537 5531 5525 5519
5655 5660 5662 5667 5674 5674 5676 5681 5684 5683 5683 5686 5691 5698 5710 5710 5707 5707 5707 5704 5694 5682 5671 5662 5651 5641 5631 5623 5614 5605 5596 5589 5583 5577 5569 5561 5554 5547 5540 5533 5527 5522 5516 5511
5645 5647 5651 5656 5661 5662 5662 5665 5670 5669 5673 5672 5681 5687 5695 5697 5695 5696 5697 5694 5684 5671 5660 5650 5641 5630 5620 5609 5599 5590 5582 5576 5570 5563 5557 5550 5543 5536 5529 5523 5518 5512 5507 5502
5631 5631 5634 5636 5646 5648 5649 5657 5660 5661 5664 5666 5669 5673 5683 5680 5683 5683 5683 5681 5672 5661 5649 5638 5628 5616 5604 5593 5583 5574 5567 5561 5555 5550 5544 5539 5533 5526 5520 5514 5508 5502 5496 5490
5620 5617 5617 5621 5634 5628 5632 5647 5648 5652 5658 5657 5654 5655 5654 5658 5660 5663 5666 5665 5659 5648 5636 5624 5611 5598 5586 5576 5567 5560 5554 5549 5543 5537 5533 5528 5522 5516 5510 5504 5497 5489 5482 5475
5600 5602 5607 5611 5610 5601 5626 5626 5628 5630 5634 5632 5629 5630 5633 5636 5642 5645 5646 5647 5642 5632 5619 5605 5591 5577 5567 5559 5552 5547 5544 5538 5533 5528 5523 5517 5511 5504 5497 5490 5481 5474 5467 5461
5589 5590 5596 5599 5600 5609 5616 5609 5607 5608 5616 5615 5613 5614 5618 5623 5628 5627 5622 5623 5618 5609 5595 5581 5568 5558 5550 5544 5540 5537 5533 5528 5523 5518 5511 5504 5497 5491 5482 5475 5467 5459 5453 5447
5579 5582 5585 5587 5580 5588 5596 5595 5598 5599 5602 5603 5600 5599 5602 5606 5607 5601 5595 5590 5583 5574 5565 5556 5548 5540 5535 5531 5530 5527 5522 5517 5512 5504 5497 5489 5482 5475 5467 5459 5452 5446 5440 5434
5573 5573 5574 5575 5573 5585 5581 5583 5588 5583 5592 5587 5586 5586 5586 5586 5581 5574 5567 5559 5552 5546 5541 5535 5530 5525 5522 5520 5518 5514 5510 5503 5496 5489 5481 5474 5467 5459 5452 5446 5438 5432 5428 5421
5567 5568 5568 5567 5565 5566 5568 5570 5566 5570 5573 5573 5573 5574 5571 5566 5559 5551 5543 5536 5530 5525 5521 5518 5515 5511 5510 5508 5505 5500 5494 5487 5482 5475 5468 5461 5454 5449 5442 5434 5426 5420 5414 5411
5557 5559 5562 5561 5561 5560 5558 5552 5552 5555 5558 5561 5563 5562 5557 5549 5540 5531 5524 5518 5513 5509 5506 5504 5503 5502 5499 5496 5493 5488 5480 5475 5470 5464 5457 5450 5443 5436 5429 5423 5417 5411 5404 5399
5549 5547 5547 5547 5551 5547 5543 5540 5540 5542 5545 5548 5550 5548 5542 5533 5523 5515 5508 5503 5498 5496 5495 5496 5496 5493 5490 5486 5482 5476 5471 5466 5461 5455 5448 5440 5434 5427 5417 5411 5406 5399 5393 5388
5540 5538 5537 5536 5535 5533 5530 5525 5525 5526 5528 5529 5529 5527 5522 5516 5509 5503 5497 5493 5491 5490 5490 5490 5489 5486 5482 5477 5472 5467 5462 5457 5451 5445 5438 5432 5426 5418 5409 5401 5392 5388 5382 5375
5531 5528 5524 5521 5519 5517 5513 5511 5512 5513 5513 5513 5512 5508 5505 5504 5500 5496 5493 5490 5488 5487 5485 5484 5482 5479 5475 5470 5464 5458 5453 5448 5443 5438 5431 5426 5418 5409 5401 5393 5387 5377 5374 5370